[Iaude] MPEC U295: 2022 UE3 [a=0.97,e=0.32,i=6.3,H=24.61]

mpec at marsden.cfa.harvard.edu mpec at marsden.cfa.harvard.edu
Tue Oct 31 10:17:00 EDT 2023


M.P.E.C. 2023-U295                             Issued 2023 October 31, 14:15 UT

     The Minor Planet Electronic Circulars contain information on unusual
         minor planets, routine data on comets and natural satellites,
         and occasional editorial announcements.  They are published
    on behalf of Division F of the International Astronomical Union by the
          Minor Planet Center, Smithsonian Astrophysical Observatory,
                          Cambridge, MA 02138, U.S.A.
			  
             Prepared using the Tamkin Foundation Computer Network

                              MPC at CFA.HARVARD.EDU
            URL https://www.minorplanetcenter.net/    ISSN 1523-6714

                                    2022 UE3                                    


                           Revision to MPEC 2022-U102                           

Additional Observations:
     K22U03E 0C2023 10 17.59254706 36 45.622+30 29 57.15         23.73GVEU295T12
     K22U03E 0C2023 10 17.60705406 36 43.786+30 30 21.04         23.56GVEU295T12
     K22U03E 0C2023 10 17.61426606 36 42.872+30 30 32.88         23.72GVEU295T12
     K22U03E &C2023 10 21.34795506 28 59.253+32 13 05.94         23.6 GVEU295309
     K22U03E &C2023 10 21.35034206 28 58.896+32 13 09.97         23.7 GVEU295309
     K22U03E &C2023 10 21.35272906 28 58.527+32 13 13.88         23.7 GVEU295309
     K22U03E &C2023 10 21.35513306 28 58.150+32 13 17.91         23.8 GVEU295309

Observer details:
309 Cerro Paranal.  Observers O. Hainaut, M. Micheli, L. Conversi.  Measurers
    M. Micheli, O. Hainaut.  8.2-m VLT UT1 + CCD.
T12 University of Hawaii 88-inch telescope, Maunakea.  Observer D. J. Tholen.
    2.24-m f/10.1 reflector + 2112 x 2112 pixels STA1600 10k CCD.

First and last observations above in comparison with prediction:
Residuals in seconds of arc, reference and Delta-T
231017 T12 31.1+  8.0+    231021 309 42.2+ 11.2+    MPO750185   +0.01 days

Orbital elements:
2022 UE3                                                 Earth MOID = 0.0009 AU
Epoch 2023 Sept. 13.0 TT = JDT 2460200.5                Veres                   
M  60.37788              (2000.0)            P               Q                  
n   1.02536012     Peri.  246.89531     -0.03889131     +0.99846292             
a   0.9739839      Node    20.99095     -0.87172527     -0.01458479             
e   0.3165621      Incl.    6.32873     -0.48844910     -0.05347046             
P   0.96           H   24.61          G   0.15           U   2                  
Residuals in seconds of arc
221013 I41  1.2+  0.6-    221019 G15  0.2+  0.2-    221026 691  0.1+  0.2+
221018 I41  0.0   0.2-    221020 V21  0.4+  1.2-    221026 691  0.0   0.1+
221018 I41  0.1+  0.1-    221020 H21  0.1-  0.3-    221027 691  0.1-  0.2+
221019 T08  0.1+  0.2-    221020 H21  0.0   0.1-    221027 691  0.1-  0.1+
221019 T08  0.7-  0.5-    221020 H21  0.0   0.1-    221027 691  0.3-  0.5+
221019 T08  0.0   0.1-    221020 H21  0.1-  0.1-    221027 T12  0.3-  0.1-
221019 T08  1.1-  0.7-    221020 V21  0.2-  0.6-    221028 K88  0.2+  0.1+
221019 T05  0.3-  0.0     221020 H21  0.1+  0.1-    221028 K88  0.1+  0.7-
221019 T08  1.1+  0.3+    221020 H21  0.2+  0.1-    221029 T12  0.1+  0.0
221019 T05  1.9+  0.2+    221020 H21  0.2+  0.0     221029 T12  0.2+  0.0
221019 T08  0.5-  1.0-    221020 H21  0.2+  0.1+    221029 T12  0.2+  0.0
221019 T05  1.8+  0.1-    221020 V21  0.0   0.6+    221030 F52  0.2+  0.0
221019 T08  0.2-  0.2-    221020 G96  0.0   0.1+    221030 F52  0.0   0.0
221019 T05  1.0-  0.3+    221020 V21  0.1-  0.0     221030 F52  0.0   0.0
221019 T08  0.8+  0.6-    221020 703  0.7+  0.3+    221030 F52  0.0   0.1-
221019 L01  0.1-  0.4+    221020 G96  0.3-  0.1-    221101 691  0.4-  0.1-
221019 L01  0.3-  0.7+    221020 703  0.1-  0.1-    221101 691 (0.8+  1.0-)
221019 L01  0.9-  0.0     221020 G96  0.1-  0.1-    221101 691  0.1+  0.1-
221019 L01  0.3+  0.2+    221020 703  0.7-  0.1-    221112 291  0.1+  0.1+
221019 L01  0.4-  0.6+    221020 G96  0.2-  0.0     221112 291  0.0   0.0
221019 K74  0.3+  0.1+    221020 V21  0.1-  0.1+    221112 291  0.2-  0.1-
221019 K74  0.0   0.5+    221020 V21  0.1-  0.0     221113 695  0.0   0.1+
221019 K74  0.2-  0.5+    221020 V21  0.4+  0.1-    221113 695  0.2-  0.1+
221019 104  0.2-  0.0     221020 V21  0.1-  0.7-    221113 291  0.1-  0.1+
221019 104  0.1-  0.0     221020 T08  0.5+  0.0     221113 695  0.1+  0.2-
221019 104  0.4-  0.4+    221020 T08  0.5+  0.3-    221113 291  0.3-  0.0
221019 G34  0.1-  0.7+    221020 T08  0.3-  0.3-    221114 N50  0.2+  0.1-
221019 G34  0.1-  0.7+    221020 T08  0.2+  0.2-    221115 G37  0.0   0.0
221019 G34  0.1+  0.6+    221021 I52  0.2-  0.1-    221115 G37  0.0   0.0
221019 C40  0.6-  0.1+    221021 I52  0.0   0.5-    221115 695  0.1+  0.1+
221019 C40  0.2-  0.0     221021 I52  0.5+  0.2-    221115 695  0.3-  0.2-
221019 C40  0.0   0.1-    221021 T05  0.1-  0.3-    221120 291  0.6+  0.2-
221019 595  0.4-  0.5+    221021 T05  0.4+  0.0     221120 291  0.5+  0.7-
221019 C40  0.4+  0.1-    221021 T05  0.4+  0.9-    231017 T12  0.0   0.0
221019 C40  0.2+  0.1-    221021 T05  0.2+  0.0     231017 T12  0.0   0.0
221019 K63  0.0   1.1+    221023 T12  0.2+  0.0     231017 T12  0.0   0.1+
221019 595  0.2+  0.0     221023 T12  0.2+  0.0     231021 309  0.0   0.1+
221019 595  0.2-  0.0     221023 T12  0.2+  0.0     231021 309  0.1+  0.1+
221019 K63  0.5+  0.4+    221025 691  0.2+  0.0     231021 309  0.1+  0.0
221019 C40  0.2+  0.2-    221025 691  0.3+  0.0     231021 309  0.0   0.0
221019 K63  0.4+  0.3+    221025 691  0.0   0.1+
221019 G15  0.6-  0.5+    221026 691  0.2-  0.1-

Ephemeris:
2022 UE3                 a,e,i = 0.97, 0.32, 6                   q = 0.6657
Date    TT    R. A. (2000) Decl.     Delta      r    Elong.  Phase     V
2023 10 01    06 56 52.4 +23 30 34   0.2709  1.0107    84.2    80.3    24.6
...
2023 10 16    06 39 33.7 +29 47 04   0.2560  1.0851   103.3    63.4    24.1
...
2023 10 24    06 22 24.0 +33 26 13   0.2458  1.1205   114.8    53.7    23.8
...
2023 10 30    06 03 37.3 +36 11 32   0.2390  1.1449   124.2    45.8    23.5
2023 10 31    05 59 55.0 +36 38 13   0.2381  1.1488   125.9    44.5    23.5
2023 11 01    05 56 02.4 +37 04 27   0.2372  1.1526   127.5    43.1    23.5
...
2023 11 07    05 29 07.7 +39 26 39   0.2339  1.1744   137.5    34.7    23.2
...
2023 11 15    04 45 10.1 +41 25 56   0.2364  1.2005   150.3    24.1    23.0
...
2023 11 30    03 23 53.0 +40 15 05   0.2694  1.2397   157.6    17.6    23.2

A. U. Tomatic                (C) Copyright 2023 MPC           M.P.E.C. 2023-U295





More information about the Iaude mailing list